Location: Breezy Point Observatory
(38.9725°N, 81.7133°W)
Time: 11:46:22
(UTC-04:00)

Hubble Space Telescope - Visible Passes

Search period start: 30 June 2016 00:00
Search period end: 10 July 2016 00:00
Orbit: 539 x 543 km, 28.5° (Epoch: 30 June)

Date Brightness Start Highest point End Pass type
(mag) Time Alt. Az. Time Alt. Az. Time Alt. Az.
01 Jul 2.9 22:53:57 10° SW 22:54:58 14° SSW 22:54:58 14° SSW visible
02 Jul 2.5 22:44:07 10° SW 22:46:02 17° SSW 22:46:02 17° SSW visible
03 Jul 2.4 22:34:19 10° SW 22:36:56 19° S 22:36:56 19° S visible
04 Jul 2.4 22:24:35 10° SW 22:27:28 18° S 22:27:45 18° S visible
05 Jul 2.4 22:14:53 10° SW 22:17:40 17° S 22:18:30 17° S visible
06 Jul 2.6 22:05:15 10° SW 22:07:51 16° S 22:09:12 14° SSE visible
07 Jul 2.8 21:55:41 10° SW 21:58:03 15° SSW 21:59:52 12° SSE visible
08 Jul 2.9 21:46:16 10° SW 21:48:13 13° SSW 21:50:11 10° SSE visible
09 Jul 3.1 21:37:06 10° SW 21:38:23 11° SSW 21:39:41 10° S visible
